This is the latest recevied weather packets stored in our database for station/object HB9KBJ-8. If no packets are shown the sender has not sent any weather packets the latest 10 day(s).
| Time | Temp. | Humidity | Pressure | Rain* | Wind** | Luminosity | Snow |
|---|---|---|---|---|---|---|---|
| 1777744647 | 20° C | 59% | 1016.6 hPa | 0 mm | - | 40 W/m² | - |
| 1777744337 | 20.56° C | 58% | 1016.6 hPa | 0 mm | - | 46 W/m² | - |
| 1777744050 | 20.56° C | 57% | 1016.6 hPa | 0 mm | - | 53 W/m² | - |
| 1777743748 | 21.11° C | 57% | 1016.6 hPa | 0 mm | - | 58 W/m² | - |
| 1777743445 | 21.11° C | 55% | 1016.6 hPa | 0 mm | - | 62 W/m² | - |
| 1777743141 | 21.11° C | 54% | 1016.6 hPa | 0 mm | - | 76 W/m² | - |
| 1777742836 | 21.67° C | 53% | 1016.6 hPa | 0 mm | - | 69 W/m² | - |
| 1777742550 | 22.22° C | 52% | 1016.6 hPa | 0 mm | - | 74 W/m² | - |
| 1777742246 | 22.22° C | 52% | 1016.5 hPa | 0 mm | - | 88 W/m² | - |
| 1777741938 | 22.78° C | 51% | 1016.5 hPa | 0 mm | - | 98 W/m² | - |
| 1777741645 | 22.78° C | 51% | 1016.6 hPa | 0 mm | - | 116 W/m² | - |
| 1777741338 | 23.33° C | 49% | 1016.6 hPa | 0 mm | - | 109 W/m² | - |
| 1777741038 | 23.33° C | 48% | 1016.6 hPa | 0 mm | - | 97 W/m² | - |
| 1777740756 | 23.89° C | 49% | 1016.6 hPa | 0 mm | - | 102 W/m² | - |
| 1777740447 | 23.89° C | 46% | 1016.6 hPa | 0 mm | - | 130 W/m² | - |
| 1777740156 | 24.44° C | 42% | 1016.6 hPa | 0 mm | - | 127 W/m² | - |
| 1777739850 | 25° C | 38% | 1016.8 hPa | 0 mm | - | 105 W/m² | - |
| 1777739548 | 25° C | 38% | 1016.8 hPa | 0 mm | - | 151 W/m² | - |
| 1777739247 | 25° C | 37% | 1016.8 hPa | 0 mm | - | 206 W/m² | - |
| 1777738946 | 24.44° C | 37% | 1016.9 hPa | 0 mm | - | 241 W/m² | - |
| 1777738646 | 24.44° C | 38% | 1017 hPa | 0 mm | - | 287 W/m² | - |
| 1777738346 | 24.44° C | 37% | 1017 hPa | 0 mm | - | 271 W/m² | - |
| 1777738041 | 24.44° C | 38% | 1017.1 hPa | 0 mm | - | 279 W/m² | - |
| 1777737734 | 25° C | 37% | 1017.1 hPa | 0 mm | - | 318 W/m² | - |
| 1777737433 | 25° C | 36% | 1017.2 hPa | 0 mm | - | 325 W/m² | - |
* Rain latest hour (hover to see other rain measurements)
** Current wind speed in m/s (hover to see current wind gust speed)